FENGYUN 1C DEB, 35109

Orbit data source: Space-Track

FENGYUN 1C DEB, 35109 is space debris in SSO originally from a launch on Mon, 10 May 1999 UTC launched from the Taiyaun Space Center, China (TSC). Fengyun 1C debris stems from the Chinese weather satellite Fengyun-1C, which was intentionally destroyed by a Chinese anti-satellite missile in 2007. This event dramatically increased the amount of space debris, with thousands of trackable fragments posing hazards to satellites and human spaceflight. The Fengyun 1C debris cloud has become a focal point in discussions about space sustainability and the need for international regulations to prevent the creation of new debris.

Loading next visibility...
Identifier
35109, 1999-025DKM
Orbit
SSO
Country
Flag of CNCN / PRC
Related business
Manufacturer
Unknown
Mission
Spacecraft
Bus & Motor
Unknown
Mass
Unknown
Launch date (UTC)
1999-05-10 (27 years ago)
Launch vehicle
Unknown
Launch site
Taiyaun Space Center, China (TSC)
Object type
Payload
Rocket body
Debris
Shape & HBR
Unknown shape, 0.1 m
Radar Cross Section
Small (<0.1 m²)

Expand to show TLE details & history
Last TLE update: 4 days ago

TLE from 4 days ago
0 FENGYUN 1C DEB
1 35109U 99025DKM 26253.20901310  .00000351  00000-0  16176-3 0  9990
2 35109  98.6376 241.2765 0151607 328.8211  30.4038 14.21187881680150
Epoch: 2026-09-10T05:00Z
TLE epoch observation values (Epoch: 2026-09-10T05:00:58.731Z)
Latitude
-0.00003°
Longitude
176.78178°
Altitude
730.533 km
Speed
7.538 km/s
True Right ascension
16h 05m 06s
True Declination
0° 00' 00"
Sunlit
Object was in daylight at epoch
Visualization orbit readout
Latitude
Unknown
Longitude
Unknown
Altitude
Unknown
Speed
Unknown
Apparent Right ascension
Unknown
Apparent Declination
Unknown
Sunlit
N/A
Visualization observer readout
Local Sidereal Time
17:48:36
Azimuth
Unknown
Elevation
Unknown
Doppler factor
Unknown
Orbital elements
Apogee altitude
927.597 km
Perigee altitude
709.385 km
Semi-major axis
7,196.628 km
Eccentricity
0.01516
Inclination
98.6376°
RAAN
241.2765°
Arg. of periapsis
328.8211°
True anomaly
31.29759°
Mean anomaly
30.4038°
Eccentric anomaly
30.84922°
Mean motion
3.55508 °/min
Orbital period
101.26 mins
BSTAR
0.00016176
Loading maneuver chart data...
Computing Atmospheric mass density...
Loading historical data...
Loading historical data...
Loading historical data...
Loading historical data...
Loading historical data...
Loading historical data...
Loading historical data...

Documentation

Showing up to 5 results
|